{"data":{"norad_id":63882,"intl_designator":"2025-094U","name":"STARLINK-34003","alt_names":[],"object_type":"PAYLOAD","status":"ACTIVE","operator":null,"country":"US","launch_date":"2025-05-10","launch_site_code":"AFWTR","launch_vehicle":null,"mission":null,"orbit_class":"UNKNOWN","rcs_meters":null,"size_class":null,"mass_kg":null,"dimensions":null,"purposes":["comms"],"wikipedia_slug":null,"has_3d_model":false,"image_url":null,"decayed_at":null,"tle_current":{"epoch":"2026-09-20T13:17:15.776448Z","epoch_age_seconds":142407,"freshness":"FRESH","line1":"1 63882U 25094U   26263.55365482  .00030751  00000+0  65567-3 0  9991","line2":"2 63882  69.9992  38.5061 0003176 275.4634  84.6187 15.44775361 78006","mean_motion":15.44775361,"eccentricity":0.0003176,"inclination_deg":69.9992,"raan_deg":38.5061,"arg_perigee_deg":275.4634,"mean_anomaly_deg":84.6187,"bstar":0.00065567,"rev_number":7800,"period_min":93.217437069156,"perigee_km":429.87529772312,"apogee_km":434.20112101611,"semimajor_km":6810.1752093696,"source":"CELESTRAK","updated_at":"2026-09-21T09:00:35.140800Z"}}}